Mount Pleasant, IA

9:16 AM CST on February 21, 2017 (GMT -0600)
Mount Pleasant Municipal

Weather History for KMPZ - November, 2013

Change the Weather History Date:

Friday, November 1, 2013

  Actual Average Record
Temperature  
Mean Temperature 47 °F -  
Max Temperature 53 °F 57 °F 80 °F (1950)
Min Temperature 42 °F 41 °F 20 °F (1993)
Degree Days  
Heating Degree Days 18    
Moisture  
Dew Point 40 °F    
Average Humidity 79    
Maximum Humidity 95    
Minimum Humidity 58    
Precipitation  
Precipitation 0.05 in - - ()
Sea Level Pressure  
Sea Level Pressure 29.67 in    
Wind  
Wind Speed 8 mph (WSW)    
Max Wind Speed 13 mph    
Max Gust Speed 18 mph    
Visibility 9 miles    
Events      
Averages and records for this station are not official NWS values.
T = Trace of Precipitation, MM = Missing Value Source: NWS Daily Summary

Daily Weather History Graph

Daily Weather History Graph

Search for Another Location

Airport or City:

Trip Planner

Search our weather history database for the weather conditions in past years. The results will help you decide how hot, cold, wet, or windy it might be!

Date:

Astronomy

Nov. 01, 2013 Rise Set
Actual Time 7:37 AM CDT 6:01 PM CDT
Civil Twilight 7:08 AM CDT 6:30 PM CDT
Nautical Twilight 6:36 AM CDT 7:02 PM CDT
Astronomical Twilight 6:04 AM CDT 7:34 PM CDT
Moon 5:28 AM CDT (11/1) 4:55 PM CDT (11/1)
Length of Visible Light 11h 21m
Length of Day
10h 24m
Waning Crescent, 4% of the Moon is Illuminated
Nov 1
Waning Crescent
Nov 3
New
Nov 9
First Quarter
Nov 17
Full
Nov 25
Last Quarter

Hourly Weather History & Observations

Time (CDT) Temp. Windchill Dew Point Humidity Pressure Visibility Wind Dir Wind Speed Gust Speed Precip Events Conditions
12:15 AM 46.4 °F 42.4 °F 44.2 °F 92% 29.53 in 7.0 mi WSW 8.1 mph - N/A   Overcast
12:35 AM 46.4 °F 43.5 °F 44.2 °F 92% 29.53 in 7.0 mi WSW 5.8 mph - N/A   Overcast
12:55 AM 45.3 °F 41.6 °F 43.2 °F 92% 29.53 in 7.0 mi WSW 6.9 mph - N/A   Scattered Clouds
1:15 AM 44.1 °F 40.8 °F 42.3 °F 93% 29.53 in 5.0 mi WSW 5.8 mph - 0.01 in   Scattered Clouds
1:35 AM 44.4 °F 42.0 °F 42.8 °F 94% 29.53 in 5.0 mi WSW 4.6 mph - 0.01 in   Mostly Cloudy
1:55 AM 45.1 °F 42.0 °F 43.7 °F 95% 29.54 in 5.0 mi WSW 5.8 mph - 0.01 in   Overcast
2:15 AM 45.5 °F 43.2 °F 43.7 °F 93% 29.54 in 5.0 mi WSW 4.6 mph - N/A   Overcast
2:35 AM 45.1 °F 40.8 °F 43.7 °F 95% 29.54 in 5.0 mi SW 8.1 mph - N/A   Overcast
2:55 AM 44.6 °F 42.2 °F 42.8 °F 93% 29.54 in 5.0 mi WSW 4.6 mph - 0.01 in   Mostly Cloudy
3:15 AM 42.8 °F 38.6 °F 41.2 °F 94% 29.55 in 4.0 mi WSW 6.9 mph - N/A   Scattered Clouds
3:35 AM 42.8 °F 38.0 °F 41.4 °F 95% 29.55 in 4.0 mi SW 8.1 mph - N/A   Clear
3:55 AM 43.0 °F 38.2 °F 41.7 °F 95% 29.55 in 4.0 mi SW 8.1 mph - N/A   Scattered Clouds
4:15 AM 43.2 °F 37.9 °F 41.9 °F 95% 29.55 in 5.0 mi WSW 9.2 mph - N/A   Scattered Clouds
4:35 AM 43.2 °F 39.0 °F 41.9 °F 95% 29.56 in 7.0 mi WSW 6.9 mph - 0.01 in   Clear
4:55 AM 43.3 °F 38.1 °F 41.7 °F 94% 29.57 in 7.0 mi WSW 9.2 mph - 0.01 in   Mostly Cloudy
5:15 AM 43.7 °F 38.1 °F 41.9 °F 93% 29.57 in 7.0 mi SW 10.4 mph - N/A   Overcast
5:35 AM 44.1 °F 39.0 °F 41.9 °F 92% 29.59 in 10.0 mi WSW 9.2 mph - N/A   Overcast
5:55 AM 44.2 °F 39.7 °F 41.5 °F 90% 29.59 in 10.0 mi WSW 8.1 mph - N/A   Overcast
6:15 AM 44.6 °F 40.2 °F 41.4 °F 88% 29.60 in 10.0 mi WSW 8.1 mph - N/A   Overcast
6:35 AM 44.6 °F 40.7 °F 41.2 °F 88% 29.60 in 10.0 mi WSW 6.9 mph - 0.01 in   Overcast
6:55 AM 44.6 °F 40.2 °F 41.0 °F 87% 29.61 in 10.0 mi West 8.1 mph - 0.01 in   Overcast
7:15 AM 44.8 °F 39.9 °F 41.0 °F 87% 29.61 in 10.0 mi West 9.2 mph - N/A   Overcast
7:35 AM 44.8 °F 40.4 °F 40.5 °F 85% 29.62 in 10.0 mi West 8.1 mph - N/A   Overcast
7:55 AM 44.6 °F 40.7 °F 40.5 °F 85% 29.62 in 10.0 mi WSW 6.9 mph - N/A   Overcast
8:15 AM 44.6 °F 40.2 °F 40.8 °F 87% 29.63 in 10.0 mi WSW 8.1 mph - N/A   Overcast
8:35 AM 44.8 °F 40.4 °F 40.5 °F 85% 29.63 in 10.0 mi West 8.1 mph - N/A   Overcast
8:55 AM 45.0 °F 40.6 °F 40.6 °F 85% 29.64 in 10.0 mi West 8.1 mph - N/A   Overcast
9:15 AM 45.1 °F 40.8 °F 40.1 °F 82% 29.65 in 10.0 mi West 8.1 mph - N/A   Overcast
9:35 AM 45.7 °F 41.0 °F 40.8 °F 83% 29.65 in 10.0 mi West 9.2 mph 16.1 mph N/A   Scattered Clouds
9:55 AM 46.4 °F 41.9 °F 40.1 °F 79% 29.66 in 10.0 mi WNW 9.2 mph - 0.01 in   Clear
10:15 AM 47.1 °F - 40.3 °F 77% 29.67 in 10.0 mi West 11.5 mph - N/A   Scattered Clouds
10:35 AM 48.2 °F - 40.3 °F 74% 29.68 in 10.0 mi West 9.2 mph - N/A   Mostly Cloudy
10:55 AM 48.7 °F - 39.9 °F 72% 29.68 in 10.0 mi West 11.5 mph - N/A   Overcast
11:15 AM 49.1 °F - 40.5 °F 72% 29.69 in 10.0 mi WNW 10.4 mph - N/A   Overcast
11:35 AM 48.7 °F - 39.6 °F 71% 29.70 in 10.0 mi West 10.4 mph - N/A   Overcast
11:55 AM 49.1 °F - 39.0 °F 68% 29.70 in 10.0 mi West 11.5 mph 16.1 mph N/A   Overcast
12:15 PM 49.5 °F - 40.1 °F 70% 29.70 in 10.0 mi WNW 9.2 mph 17.3 mph N/A   Overcast
12:35 PM 49.5 °F - 40.3 °F 71% 29.70 in 10.0 mi West 12.7 mph 16.1 mph N/A   Overcast
12:55 PM 49.1 °F - 39.6 °F 70% 29.71 in 10.0 mi West 12.7 mph - N/A   Overcast
1:15 PM 49.5 °F - 40.5 °F 71% 29.71 in 10.0 mi West 11.5 mph - N/A   Overcast
1:35 PM 50.0 °F - 40.5 °F 70% 29.71 in 10.0 mi West 12.7 mph - N/A   Overcast
1:55 PM 50.0 °F - 41.0 °F 71% 29.71 in 10.0 mi West 11.5 mph - N/A   Overcast
2:15 PM 50.4 °F - 41.4 °F 71% 29.71 in 10.0 mi West 9.2 mph - N/A   Overcast
2:35 PM 51.3 °F - 40.6 °F 67% 29.72 in 10.0 mi West 11.5 mph 17.3 mph N/A   Mostly Cloudy
2:55 PM 51.8 °F - 39.2 °F 62% 29.72 in 10.0 mi West 12.7 mph 17.3 mph N/A   Overcast
3:15 PM 51.4 °F - 38.7 °F 62% 29.73 in 10.0 mi WNW 12.7 mph 18.4 mph N/A   Overcast
4:55 PM 52.2 °F - 38.1 °F 59% 29.74 in 10.0 mi West 6.9 mph - N/A   Scattered Clouds
5:15 PM 52.3 °F - 37.9 °F 58% 29.75 in 10.0 mi West 6.9 mph - N/A   Clear
5:35 PM 51.6 °F - 37.9 °F 60% 29.75 in 10.0 mi WSW 6.9 mph - N/A   Scattered Clouds
5:55 PM 50.0 °F - 38.5 °F 65% 29.75 in 10.0 mi West 5.8 mph - N/A   Scattered Clouds
6:15 PM 50.0 °F - 38.3 °F 64% 29.76 in 10.0 mi West 5.8 mph - N/A   Scattered Clouds
6:35 PM 48.2 °F - 37.8 °F 67% 29.76 in 10.0 mi WSW 4.6 mph - N/A   Clear
6:55 PM 46.9 °F - 37.9 °F 71% 29.77 in 10.0 mi WSW 4.6 mph - N/A   Scattered Clouds
7:15 PM 46.4 °F 43.5 °F 37.8 °F 72% 29.77 in 10.0 mi WSW 5.8 mph - N/A   Scattered Clouds
7:35 PM 45.7 °F 42.7 °F 37.8 °F 74% 29.78 in 10.0 mi WSW 5.8 mph - N/A   Clear
7:55 PM 45.5 °F 41.8 °F 38.1 °F 75% 29.78 in 10.0 mi WSW 6.9 mph - N/A   Clear
8:15 PM 45.1 °F 41.4 °F 37.8 °F 75% 29.78 in 10.0 mi WSW 6.9 mph - N/A   Clear
8:35 PM 45.5 °F 41.3 °F 37.8 °F 74% 29.78 in 10.0 mi WSW 8.1 mph - N/A   Clear
8:55 PM 44.6 °F 40.7 °F 37.8 °F 77% 29.78 in 10.0 mi WSW 6.9 mph - N/A   Scattered Clouds
9:15 PM 44.1 °F 40.8 °F 37.2 °F 77% 29.79 in 10.0 mi WSW 5.8 mph - N/A   Clear
9:35 PM 43.2 °F 39.7 °F 36.3 °F 77% 29.79 in 10.0 mi WSW 5.8 mph - N/A   Clear
9:55 PM 43.2 °F 39.7 °F 36.5 °F 77% 29.80 in 10.0 mi WSW 5.8 mph - N/A   Clear
10:15 PM 42.4 °F 38.8 °F 36.5 °F 79% 29.80 in 10.0 mi WSW 5.8 mph - N/A   Clear
10:35 PM 43.0 °F 38.2 °F 37.2 °F 80% 29.81 in 10.0 mi West 8.1 mph - N/A   Scattered Clouds
10:55 PM 45.9 °F 41.7 °F 37.8 °F 73% 29.81 in 10.0 mi West 8.1 mph - N/A   Light Drizzle
11:15 PM 46.4 °F 42.4 °F 38.5 °F 74% 29.81 in 10.0 mi West 8.1 mph - N/A   Overcast
11:35 PM 47.1 °F - 39.0 °F 73% 29.82 in 10.0 mi West 8.1 mph - N/A   Overcast
11:55 PM 47.7 °F - 39.6 °F 73% 29.82 in 10.0 mi West 8.1 mph - N/A   Overcast